Regional Weather Roundup
Issued by NWS Cleveland, OH

Home | Current Version | Previous Version | Graphics & Text | Print | Product List | Glossary On
Versions: 1 2 3 4 5 6 7 8 9 10 11 12 13 14 15 16 17 18 19 20 21 22 23 24 25 26 27 28 29 30 31 32 33 34 35 36 37 38 39 40 41 42 43 44 45 46 47 48 49 50
000
ASUS41 KCLE 222112
RWRCLE
OHIO REGIONAL WEATHER ROUNDUP
NATIONAL WEATHER SERVICE WILMINGTON, OH
500 PM EDT SUN OCT 22 2017

NOTE: "FAIR" INDICATES FEW OR NO CLOUDS BELOW 12,000 FEET WITH NO
SIGNIFICANT WEATHER AND/OR OBSTRUCTIONS TO VISIBILITY.

OHZ001>008-015>018-024>027-034-035-043-044-222200-
   NORTHWEST OHIO

CITY           SKY/WX    TMP DP  RH WIND       PRES   REMARKS
DEFIANCE       FAIR      77  54  44 S16       30.03S
FINDLAY        LGT RAIN  79  51  37 S17       30.07S
TOLEDO EXPRESS FAIR      79  56  45 S14G24    30.03F
TOLEDO EXEC    FAIR      79  53  40 S18G28    30.06S
LIMA           FAIR      75  53  46 S15G23    30.08S
$$

OHZ009>014-019>023-028>033-038-089-222200-
   NORTHEAST OHIO

CITY           SKY/WX    TMP DP  RH WIND       PRES   REMARKS
CLE-HOPKINS    PTSUNNY   77  48  35 S13G20    30.13S
CLE-LAKEFRONT  FAIR      77  46  33 S13G23    30.10F
CUY CO. ARPT   MOSUNNY   77  45  31 S12       30.13F
LORAIN-ELYRIA  FAIR      76  47  35 S12       30.11S
ASHTABULA      FAIR      74  52  46 SE9       30.16F
AKRON-CANTON   PTSUNNY   75  48  38 S12       30.15F
WOOSTER        FAIR      74  46  36 S14       30.15S
MANSFIELD      FAIR      74  51  44 SE15      30.13S
YOUNGSTOWN     PTSUNNY   75  51  43 VRB6      30.16F
$$

OHZ042-051>053-060>062-070>072-077>081-222200-
  SOUTHWEST OHIO

CITY           SKY/WX    TMP DP  RH WIND       PRES   REMARKS
CINC-COVINGTON PTSUNNY   73  55  53 S13       30.11F
CINC-LUNKEN    FAIR      74  52  46 S17G24    30.11F
HAMILTON       FAIR      75  53  46 S8        30.11S
DAYTON         PTSUNNY   73  53  49 S16       30.11S
WRIGHT-PAT AFB FAIR      76  47  36 S18       30.10S
DAYTON GENERAL FAIR      73  50  44 S13       30.11S
WILMINGTON     FAIR      73  48  41 S14G20    30.13S
$$

OHZ036-037-039>041-045>050-054>059-063>069-073>076-082>088-222200-
  CENTRAL AND SOUTHEAST OHIO

CITY           SKY/WX    TMP DP  RH WIND       PRES   REMARKS
COLUMBUS       PTSUNNY   75  51  43 S9        30.13S
OSU AIRPORT    FAIR      73  50  44 S15       30.13S
BOLTON FIELD   SUNNY     73  50  43 S8G16     30.15R
RICKENBACK AFB FAIR      73  49  42 S10       30.14R
NEWARK         FAIR      76  47  35 S7        30.14S
MARION         FAIR      76  50  40 S14       30.12R
LANCASTER      FAIR      73  52  47 S8        30.15S
ZANESVILLE     FAIR      75  48  38 S9        30.16S
NEW PHILLY     FAIR      76  50  40 SE5       30.15F
$$



USA.gov is the U.S. government's official web portal to all federal, state and local government web resources and services.